This is the latest recevied weather packets stored in our database for station/object NE8U. If no packets are shown the sender has not sent any weather packets the latest 10 day(s).
| Time | Temp. | Humidity | Pressure | Rain* | Wind** | Luminosity | Snow |
|---|---|---|---|---|---|---|---|
| 1777681426 | 29.44° C | 20% | 1011.4 hPa | 0 mm | - | 169 W/m² | - |
| 1777681123 | 30.56° C | 19% | 1011.4 hPa | 0 mm | - | 49 W/m² | - |
| 1777680821 | 30.56° C | 18% | 1011.5 hPa | 0 mm | - | 216 W/m² | - |
| 1777680518 | 30.56° C | 18% | 1011.6 hPa | 0 mm | - | 237 W/m² | - |
| 1777680216 | 30.56° C | 17% | 1011.6 hPa | 0 mm | - | 239 W/m² | - |
| 1777679912 | 30.56° C | 18% | 1011.5 hPa | 0 mm | - | 242 W/m² | - |
| 1777679608 | 30.56° C | 18% | 1011.5 hPa | 0 mm | - | 269 W/m² | - |
| 1777679303 | 30.56° C | 19% | 1011.5 hPa | 0 mm | - | 298 W/m² | - |
| 1777679000 | 30° C | 19% | 1011.4 hPa | 0 mm | - | 321 W/m² | - |
| 1777678699 | 30.56° C | 19% | 1011.6 hPa | 0 mm | - | 338 W/m² | - |
| 1777678396 | 30.56° C | 19% | 1011.5 hPa | 0 mm | - | 361 W/m² | - |
| 1777678092 | 30.56° C | 19% | 1011.7 hPa | 0 mm | - | 354 W/m² | - |
| 1777677789 | 30.56° C | 20% | 1011.5 hPa | 0 mm | - | 410 W/m² | - |
| 1777677486 | 30° C | 20% | 1011.6 hPa | 0 mm | - | 419 W/m² | - |
| 1777677184 | 30° C | 20% | 1011.5 hPa | 0 mm | - | 428 W/m² | - |
| 1777676883 | 30.56° C | 19% | 1011.7 hPa | 0 mm | - | 403 W/m² | - |
| 1777676581 | 30.56° C | 19% | 1011.5 hPa | 0 mm | - | 406 W/m² | - |
| 1777676278 | 30.56° C | 20% | 1011.6 hPa | 0 mm | - | 436 W/m² | - |
| 1777675976 | 30.56° C | 20% | 1011.6 hPa | 0 mm | - | 484 W/m² | - |
| 1777675671 | 30° C | 21% | 1012 hPa | 0 mm | - | 497 W/m² | - |
| 1777675369 | 31.11° C | 20% | 1012 hPa | 0 mm | - | 514 W/m² | - |
| 1777675065 | 31.11° C | 20% | 1011.9 hPa | 0 mm | - | 524 W/m² | - |
| 1777674762 | 30.56° C | 20% | 1011.7 hPa | 0 mm | - | 558 W/m² | - |
| 1777674458 | 30° C | 20% | 1012 hPa | 0 mm | - | 567 W/m² | - |
| 1777674156 | 30° C | 21% | 1012.1 hPa | 0 mm | - | 570 W/m² | - |
* Rain latest hour (hover to see other rain measurements)
** Current wind speed in m/s (hover to see current wind gust speed)